FW7005 Weather Reports


time (UTC)temp
C
wind
direction
speed
KPH
gust
KPH
rain 1hr
cm
rain 24hr
cm
rain mn
cm
humidity
%
barometer
mb
20260506103155 0 21 1.6 1.6 0.00 0.03 0.03 99 1020.2
20260506102653 0 343 1.6 3.2 0.00 0.03 0.03 99 1020.0
20260506102150 0 322 0.0 1.6 0.00 0.03 0.03 99 1019.9
20260506101647 0 280 0.0 1.6 0.00 0.03 0.03 99 1020.0
20260506101144 0 317 0.0 1.6 0.00 0.03 0.03 99 1020.0
20260506100642 0 347 0.0 0.0 0.00 0.03 0.03 99 1020.0
20260506100140 0 328 0.0 0.0 0.00 0.03 0.03 99 1020.0
20260506095638 0 334 0.0 0.0 0.13 0.03 0.03 99 1019.9
20260506095134 0 334 0.0 0.0 0.13 0.03 0.03 99 1020.0
20260506094632 0 336 0.0 0.0 0.00 0.00 0.00 99 1020.3
20260506094130 0 343 0.0 0.0 0.00 0.00 0.00 99 1020.3
20260506093628 0 332 0.0 0.0 0.00 0.00 0.00 99 1020.0
20260506093125 0 332 0.0 0.0 0.00 0.00 0.00 99 1020.3
20260506092623 0 328 0.0 0.0 0.00 0.00 0.00 99 1020.2
20260506092119 0 314 0.0 0.0 0.00 0.00 0.00 99 1020.3
20260506091617 0 319 0.0 0.0 0.00 0.00 0.00 99 1020.4
20260506091114 0 342 0.0 0.0 0.00 0.00 0.00 99 1020.2
20260506090613 0 272 1.6 1.6 0.00 0.00 0.00 99 1020.4
20260506090108 0 20 1.6 1.6 0.00 0.00 0.00 99 1019.9
20260506085606 0 347 0.0 1.6 0.00 0.00 0.00 99 1020.0
20260506085102 0 332 0.0 0.0 0.00 0.00 0.00 99 1020.3
20260506084559 0 319 0.0 0.0 0.00 0.00 0.00 99 1020.3
20260506084055 0 282 0.0 0.0 0.00 0.00 0.00 99 1020.3
20260506083552 0 331 0.0 0.0 0.00 0.00 0.00 99 1020.3
20260506083050 0 345 1.6 1.6 0.00 0.00 0.00 99 1020.6
20260506082546 0 334 0.0 0.0 0.00 0.00 0.00 99 1020.4
20260506082042 0 8 0.0 0.0 0.00 0.00 0.00 99 1020.4
20260506081540 0 346 0.0 0.0 0.00 0.00 0.00 99 1020.2
20260506081037 0 340 0.0 0.0 0.00 0.00 0.00 99 1020.4
20260506080535 0 322 0.0 0.0 0.00 0.00 0.00 99 1020.3
20260506073519 0 320 0.0 0.0 0.00 0.00 0.00 99 1019.8
20260506073015 0 351 0.0 0.0 0.00 0.00 0.00 99 1020.2
20260506072513 0 0 0.0 1.6 0.00 0.00 0.00 99 1020.0
20260506072010 0 331 0.0 0.0 0.00 0.00 0.00 99 1019.9
20260506071508 0 335 0.0 0.0 0.00 0.00 0.00 99 1020.2
20260506071005 1 330 0.0 0.0 0.00 0.00 0.00 99 1019.8
20260506070502 0 320 1.6 1.6 0.00 0.00 0.00 99 1019.8
20260506062439 1 323 0.0 0.0 0.00 0.71 0.71 99 1019.6
20260506061935 1 331 0.0 0.0 0.00 0.71 0.71 99 1019.4
20260506061432 1 331 0.0 0.0 0.00 0.71 0.71 99 1019.4
20260506060930 1 330 0.0 0.0 0.00 0.71 0.71 99 1019.4
20260506060428 1 336 0.0 0.0 0.00 0.71 0.71 99 1019.1
20260506051400 3 336 0.0 0.0 0.00 0.71 0.71 99 1018.5
20260506050857 3 332 0.0 0.0 0.00 0.71 0.71 99 1018.6
20260506050354 3 336 0.0 0.0 0.00 0.71 0.71 99 1018.8
20260506044845 3 311 0.0 1.6 0.00 0.71 0.71 99 1018.6
20260506044343 3 355 0.0 0.0 0.00 0.71 0.71 99 1018.5
20260506043839 4 64 1.6 1.6 0.00 0.71 0.71 99 1018.4
20260506043337 4 334 0.0 0.0 0.00 0.71 0.71 99 1018.5
20260506042835 4 322 0.0 0.0 0.00 0.71 0.71 99 1018.5
20260506042334 4 260 0.0 0.0 0.00 0.71 0.71 99 1018.5
20260506041832 4 258 0.0 0.0 0.00 0.71 0.71 99 1018.4
20260506041329 3 357 0.0 0.0 0.00 0.71 0.71 99 1018.2
20260506040826 3 17 0.0 0.0 0.00 0.71 0.71 99 1018.2
20260506040323 4 89 0.0 0.0 0.00 0.71 0.71 99 1018.2
20260506035819 4 36 0.0 0.0 0.00 0.71 0.71 99 1018.4
20260506035317 4 327 0.0 0.0 0.00 0.71 0.71 99 1018.1
20260506034814 3 355 0.0 0.0 0.00 0.71 0.71 99 1018.0
20260506034311 4 5 0.0 0.0 0.00 0.71 0.71 99 1018.0
20260506033808 4 295 0.0 0.0 0.00 0.71 0.71 99 1017.9
20260506033305 3 349 0.0 0.0 0.00 0.71 0.71 99 1017.9
20260506032802 3 357 0.0 0.0 0.00 0.71 0.71 99 1017.9
20260506032259 3 350 0.0 0.0 0.00 0.71 0.71 99 1017.8
20260506031755 3 337 0.0 0.0 0.00 0.71 0.71 99 1017.6
20260506031253 4 327 0.0 0.0 0.00 0.71 0.71 99 1017.5
20260506030751 3 340 0.0 0.0 0.00 0.71 0.71 99 1017.5
20260506030248 3 5 0.0 0.0 0.00 0.71 0.71 99 1017.5
20260506025745 3 10 0.0 0.0 0.00 0.71 0.71 99 1017.5
20260506025241 3 7 0.0 0.0 0.00 0.71 0.71 99 1017.2
20260506024738 3 71 0.0 0.0 0.00 0.71 0.71 99 1017.3
20260506024235 3 102 0.0 1.6 0.00 0.71 0.71 99 1017.3
20260506023731 3 189 0.0 3.2 0.00 0.71 0.71 99 1016.9
20260506023229 3 36 0.0 1.6 0.00 0.71 0.71 99 1017.0
20260506022725 3 232 0.0 1.6 0.00 0.71 0.71 99 1016.8
20260506022223 4 128 0.0 1.6 0.00 0.71 0.71 99 1017.0
20260506021721 4 47 0.0 0.0 0.00 0.71 0.71 99 1016.9
20260506021218 4 137 0.0 0.0 0.00 0.71 0.71 99 1016.9
20260506020714 4 126 0.0 1.6 0.00 0.71 0.71 99 1017.0
20260506020212 3 97 0.0 0.0 0.00 0.71 0.71 99 1016.8
20260506015709 3 132 0.0 0.0 0.00 0.71 0.71 99 1016.8
20260506015207 3 93 0.0 0.0 0.00 0.71 0.71 99 1016.9
20260506014704 3 117 0.0 0.0 0.00 0.71 0.71 99 1016.9
20260506014200 3 160 0.0 1.6 0.00 0.71 0.71 99 1017.0
20260506013658 3 144 1.6 3.2 0.00 0.71 0.71 99 1016.6
20260506013155 3 172 0.0 1.6 0.00 0.71 0.71 99 1016.8
20260506012651 3 240 3.2 3.2 0.00 0.71 0.71 99 1016.7
20260506012148 3 276 0.0 4.8 0.00 0.71 0.71 99 1016.9
20260506011645 3 198 3.2 3.2 0.00 0.71 0.71 99 1016.7
20260506011141 3 259 0.0 0.0 0.00 0.71 0.71 99 1016.6
20260506010640 3 216 3.2 3.2 0.00 0.71 0.71 99 1016.8
20260506010137 3 264 3.2 3.2 0.00 0.71 0.71 99 1016.7
20260506005633 3 251 1.6 1.6 0.00 0.71 0.71 99 1016.8
20260506005130 4 215 4.8 4.8 0.00 0.71 0.71 99 1016.7
20260506004626 4 27 0.0 0.0 0.00 0.71 0.71 99 1016.3
20260506004124 3 283 0.0 1.6 0.00 0.71 0.71 99 1016.5
20260506003620 3 284 0.0 3.2 0.00 0.71 0.71 99 1016.7
20260506003116 3 268 1.6 3.2 0.00 0.71 0.71 99 1016.7
20260506002612 3 248 4.8 4.8 0.00 0.71 0.71 99 1016.8
20260506002108 4 63 1.6 3.2 0.00 0.71 0.71 99 1016.8
20260506001605 3 131 3.2 3.2 0.00 0.71 0.71 99 1016.9
20260506001102 3 176 1.6 4.8 0.00 0.71 0.71 99 1016.8
20260506000559 3 20 0.0 1.6 0.00 0.71 0.71 99 1016.6
20260506000056 4 290 1.6 3.2 0.00 0.71 0.71 99 1016.8
20260505235554 3 221 0.0 0.0 0.00 0.71 0.71 99 1016.7
20260505235051 4 157 3.2 4.8 0.00 0.71 0.71 99 1016.6
20260505234548 4 174 1.6 3.2 0.00 0.71 0.71 99 1016.5
20260505234045 3 272 0.0 3.2 0.00 0.71 0.71 99 1016.7
20260505233543 3 254 6.4 9.7 0.00 0.71 0.71 99 1016.6
20260505233040 3 237 6.4 9.7 0.00 0.71 0.71 99 1016.5
20260505232537 4 246 3.2 4.8 0.00 0.71 0.71 99 1016.5
20260505232035 4 124 3.2 4.8 0.00 0.71 0.71 99 1016.6
20260505231531 5 146 4.8 9.7 0.00 0.71 0.71 99 1016.5
20260505231030 5 244 3.2 4.8 0.00 0.71 0.71 99 1016.7
20260505230527 5 58 0.0 1.6 0.00 0.71 0.71 99 1016.7
20260505230024 5 297 1.6 4.8 0.00 0.71 0.71 99 1016.5
20260505225520 6 290 0.0 1.6 0.00 0.71 0.71 99 1016.5
20260505225017 5 203 6.4 9.7 0.00 0.71 0.71 99 1016.5
20260505224514 5 242 8.0 11.3 0.00 0.71 0.71 99 1016.5
20260505224011 5 186 4.8 4.8 0.00 0.71 0.71 99 1016.7
20260505223508 5 124 4.8 4.8 0.00 0.71 0.71 99 1016.7
20260505223004 5 227 1.6 8.0 0.00 0.71 0.71 99 1016.5
20260505222501 4 244 6.4 8.0 0.00 0.71 0.71 99 1016.8
20260505221956 5 279 1.6 3.2 0.00 0.71 0.71 99 1016.8
20260505221454 4 278 3.2 9.7 0.18 0.71 0.71 99 1016.8
20260505220951 5 173 4.8 4.8 0.18 0.71 0.71 99 1016.3
20260505220448 4 266 1.6 3.2 0.00 0.69 0.69 99 1016.6
20260505215945 5 233 9.7 11.3 0.00 0.69 0.69 99 1016.3
20260505215443 5 247 4.8 8.0 0.00 0.69 0.69 99 1016.7
20260505214941 4 358 1.6 3.2 0.00 0.69 0.69 99 1016.6
20260505214438 4 275 4.8 9.7 0.00 0.69 0.69 99 1016.7
20260505213936 4 167 4.8 4.8 0.00 0.69 0.69 99 1016.7
20260505213433 3 198 3.2 9.7 0.00 0.69 0.69 99 1016.6
20260505212929 3 240 4.8 8.0 0.13 0.69 0.69 99 1016.9
20260505212426 3 230 4.8 11.3 0.00 0.66 0.66 99 1016.5
20260505211922 4 216 1.6 8.0 0.00 0.66 0.66 99 1016.8
20260505211420 4 303 0.0 3.2 0.18 0.66 0.66 99 1016.6
20260505210916 4 319 1.6 3.2 0.18 0.66 0.66 99 1016.6
20260505210414 4 241 3.2 4.8 0.00 0.64 0.64 99 1016.3
20260505205910 4 146 0.0 4.8 0.00 0.64 0.64 99 1016.3
20260505205409 4 23 0.0 3.2 0.13 0.64 0.64 99 1016.3
20260505204905 4 249 3.2 3.2 0.13 0.64 0.64 99 1016.1
20260505204403 4 129 4.8 4.8 0.00 0.61 0.61 99 1016.2
20260505203900 3 327 0.0 4.8 0.00 0.61 0.61 99 1016.5
20260505203356 4 232 4.8 8.0 0.00 0.61 0.61 99 1016.3
20260505202853 4 199 0.0 1.6 0.18 0.61 0.61 99 1016.1
20260505202349 3 250 3.2 4.8 0.13 0.58 0.58 99 1016.0
20260505201846 3 288 0.0 4.8 0.13 0.58 0.58 99 1016.2
20260505201343 3 252 1.6 4.8 0.00 0.56 0.56 99 1016.2
20260505200841 3 76 1.6 3.2 0.18 0.56 0.56 99 1016.1
20260505200338 3 248 1.6 9.7 0.18 0.56 0.56 99 1016.1
20260505195834 3 246 3.2 4.8 0.00 0.53 0.53 99 1015.9
20260505195331 3 183 1.6 11.3 0.00 0.53 0.53 99 1016.1
20260505194828 3 319 0.0 3.2 0.13 0.53 0.53 99 1016.0
20260505194325 3 141 6.4 8.0 0.13 0.53 0.53 99 1015.9
20260505193820 4 152 4.8 9.7 0.00 0.51 0.51 99 1016.2
20260505193318 3 184 1.6 8.0 0.00 0.51 0.51 99 1016.0
20260505192816 4 234 0.0 9.7 0.00 0.51 0.51 99 1016.0
20260505192315 4 167 4.8 8.0 0.00 0.51 0.51 99 1015.9
20260505191812 4 174 3.2 4.8 0.00 0.51 0.51 99 1016.1
20260505191310 4 358 0.0 1.6 0.00 0.51 0.51 99 1016.1
20260505190806 4 156 1.6 4.8 0.00 0.51 0.51 99 1015.9
20260505190302 3 284 0.0 4.8 0.00 0.51 0.51 99 1015.9
20260505185758 4 242 6.4 9.7 0.00 0.51 0.51 99 1015.9
20260505185254 4 159 3.2 4.8 0.00 0.51 0.51 99 1015.9
20260505184750 4 243 3.2 4.8 0.00 0.51 0.51 99 1015.6
20260505184248 4 206 1.6 8.0 0.00 0.51 0.51 99 1015.7
20260505183744 5 172 6.4 8.0 0.00 0.51 0.51 99 1015.9
20260505183242 5 231 4.8 8.0 0.00 0.51 0.51 99 1015.7
20260505182738 5 219 1.6 9.7 0.00 0.51 0.51 99 1015.5
20260505182235 5 167 3.2 3.2 0.00 0.51 0.51 99 1015.5
20260505181731 5 92 0.0 8.0 0.00 0.51 0.51 99 1015.4
20260505181229 4 285 1.6 4.8 0.00 0.51 0.51 99 1015.6
20260505180725 5 166 6.4 9.7 0.00 0.51 0.51 99 1015.4
20260505180222 5 153 4.8 4.8 0.00 0.51 0.51 99 1015.6
20260505175713 5 53 0.0 4.8 0.00 0.51 0.51 99 1015.7
20260505175209 3 238 4.8 4.8 0.00 0.51 0.51 99 1015.4
20260505174706 3 186 1.6 3.2 0.00 0.51 0.51 99 1015.5
20260505174203 3 240 3.2 4.8 0.00 0.51 0.51 99 1015.3
20260505173659 4 88 3.2 3.2 0.00 0.51 0.51 99 1015.3
20260505173155 3 308 0.0 1.6 0.00 0.51 0.51 99 1015.0
20260505172652 3 296 0.0 1.6 0.18 0.51 0.51 99 1015.1
20260505172149 3 201 1.6 1.6 0.18 0.51 0.51 99 1015.3
20260505171644 3 216 1.6 3.2 0.00 0.48 0.48 99 1015.3
20260505171141 3 226 1.6 4.8 0.00 0.48 0.48 99 1015.1
20260505170638 3 234 4.8 8.0 0.13 0.48 0.48 99 1015.1
20260505170135 3 76 0.0 1.6 0.13 0.48 0.48 99 1014.9
20260505165635 3 233 4.8 4.8 0.00 0.46 0.46 99 1015.3
20260505165131 3 182 1.6 3.2 0.00 0.46 0.46 99 1015.4
20260505164626 3 214 0.0 1.6 0.00 0.46 0.46 99 1015.0
20260505164125 3 178 1.6 3.2 0.00 0.46 0.46 99 1015.0
20260505163623 3 254 4.8 4.8 0.00 0.46 0.46 99 1014.9
20260505163120 3 217 3.2 3.2 0.00 0.46 0.46 99 1015.0
20260505162617 3 243 3.2 3.2 0.00 0.46 0.46 99 1014.8
20260505162115 3 248 4.8 4.8 0.00 0.46 0.46 99 1014.8
20260505161611 3 237 0.0 1.6 0.18 0.46 0.46 99 1014.9
20260505161109 3 237 0.0 1.6 0.18 0.46 0.46 99 1014.5
20260505160607 3 223 3.2 3.2 0.00 0.43 0.43 99 1014.9
20260505160104 3 212 4.8 4.8 0.00 0.43 0.43 99 1014.7
20260505153043 2 124 0.0 0.0 0.00 0.41 0.41 99 1014.5
20260505152540 2 98 0.0 1.6 0.00 0.41 0.41 99 1014.4
20260505152036 2 26 0.0 1.6 0.00 0.41 0.41 99 1014.5
20260505151531 2 45 3.2 3.2 0.00 0.41 0.41 99 1014.5
20260505151029 2 59 0.0 0.0 0.00 0.41 0.41 99 1014.2
20260505150525 2 49 0.0 0.0 0.00 0.41 0.41 99 1014.3
20260505140450 2 42 0.0 1.6 0.00 0.38 0.38 99 1014.1
20260505124903 2 287 0.0 0.0 0.13 0.30 0.30 99 1014.1
20260505124400 2 272 0.0 0.0 0.13 0.30 0.30 99 1013.8
20260505123856 2 326 0.0 0.0 0.00 0.28 0.28 99 1013.8
20260505123353 2 329 0.0 0.0 0.18 0.28 0.28 99 1013.9
20260505122849 2 322 0.0 0.0 0.00 0.25 0.25 99 1013.7
20260505122347 2 309 0.0 0.0 0.13 0.25 0.25 99 1013.7
20260505121843 2 324 0.0 0.0 0.00 0.23 0.23 99 1013.7
20260505121340 2 347 0.0 0.0 0.18 0.23 0.23 99 1013.7
20260505120836 2 21 0.0 0.0 0.18 0.23 0.23 99 1013.6
20260505120332 2 18 0.0 0.0 0.13 0.20 0.20 99 1013.5
20260505115831 2 319 0.0 0.0 0.13 0.20 0.20 99 1013.5
20260505115328 2 224 0.0 0.0 0.00 0.18 0.18 99 1013.6
20260505114826 2 173 0.0 0.0 0.18 0.18 0.18 99 1013.6
20260505114323 2 166 0.0 0.0 0.18 0.15 0.15 99 1013.8
20260505113819 2 172 0.0 0.0 0.18 0.15 0.15 99 1013.7
20260505113315 2 26 0.0 0.0 0.00 0.13 0.13 99 1013.7
20260505112811 2 35 0.0 0.0 0.00 0.13 0.13 99 1013.6
20260505112309 2 24 0.0 0.0 0.13 0.13 0.13 99 1013.6
20260505111804 2 23 0.0 0.0 0.13 0.13 0.13 99 1013.5
20260505111300 2 353 0.0 0.0 0.00 0.10 0.10 99 1013.9
20260505110756 2 338 0.0 0.0 0.00 0.10 0.10 99 1013.6
20260505110254 2 239 3.2 4.8 0.00 0.10 0.10 99 1013.6